Location: Staunton
(38.1490°N, 79.0720°W)
Time: 15:12:35
(UTC-04:00)

N. Korean satellite - Pass Details

Date: 24 September 2021
Orbit: 450 x 495 km, 97.3° (Epoch: 16 October)

Event Time Altitude Azimuth Distance (km) Brightness Sun altitude
Rises 06:16:56 0° 16° (NNE) 2,523 10.5 -10.5°
Reaches altitude 10° 06:19:01 10° 21° (NNE) 1,649 9.6 -10.1°
Maximum altitude 06:22:30 55° 100° (E) 586 7.4 -9.4°
Drops below altitude 10° 06:26:01 10° 179° (S) 1,661 9.2 -8.7°
Sets 06:28:07 0° 184° (S) 2,544 10.1 -8.3°
